• In Hungary
  • List of Countries
  • For 7 days
  • Water Temperature
  • Satellite Maps
  • Weather Map
  • News
  • Weather Widgets
  • user-avatar
    Login

    Hourly Weather Maldegem

    Today, 26 September, Wednesday

    Time Temperature Precipitation Wind Pressure Humidity
    00:00 +9°C° 0 mm 3 mps 776 mmHg 72%
    01:00 +8°C° 0 mm 3 mps 776 mmHg 73%
    02:00 +8°C° 0 mm 3 mps 775 mmHg 73%
    03:00 +8°C° 0 mm 3 mps 775 mmHg 74%
    04:00 +8°C° 0 mm 3 mps 775 mmHg 73%
    05:00 +8°C° 0 mm 3 mps 775 mmHg 73%
    06:00 +7°C° 0 mm 3 mps 775 mmHg 72%
    07:00 +9°C° 0 mm 3 mps 775 mmHg 66%
    08:00 +11°C° 0 mm 3 mps 775 mmHg 60%
    09:00 +13°C° 0 mm 3 mps 775 mmHg 53%
    10:00 +16°C° 0 mm 3 mps 775 mmHg 49%
    11:00 +17°C° 0 mm 3 mps 775 mmHg 45%
    12:00 +19°C° 0 mm 3 mps 774 mmHg 40%
    13:00 +19°C° 0 mm 3 mps 774 mmHg 40%
    14:00 +19°C° 0 mm 3 mps 774 mmHg 40%
    15:00 +20°C° 0 mm 3 mps 774 mmHg 40%
    16:00 +18°C° 0 mm 2 mps 773 mmHg 44%
    17:00 +16°C° 0 mm 2 mps 773 mmHg 48%
    18:00 +15°C° 0 mm 2 mps 773 mmHg 53%
    19:00 +14°C° 0 mm 2 mps 774 mmHg 54%
    20:00 +14°C° 0 mm 2 mps 774 mmHg 55%
    21:00 +13°C° 0 mm 2 mps 774 mmHg 56%
    22:00 +13°C° 0 mm 2 mps 774 mmHg 57%
    23:00 +12°C° 0 mm 2 mps 773 mmHg 58%

    Tomorrow, 27 September, Thursday

    Time Temperature Precipitation Wind Pressure Humidity
    00:00 +12°C° 0 mm 2 mps 773 mmHg 59%
    01:00 +12°C° 0 mm 2 mps 773 mmHg 59%
    02:00 +10°C° 0 mm 2 mps 773 mmHg 60%
    03:00 +10°C° 0 mm 2 mps 772 mmHg 61%
    04:00 +10°C° 0 mm 3 mps 772 mmHg 62%
    05:00 +9°C° 0 mm 3 mps 772 mmHg 63%
    06:00 +9°C° 0 mm 3 mps 772 mmHg 64%
    07:00 +11°C° 0 mm 3 mps 771 mmHg 60%
    08:00 +13°C° 0 mm 3 mps 771 mmHg 56%
    09:00 +16°C° 0 mm 3 mps 771 mmHg 52%
    10:00 +18°C° 0 mm 3 mps 771 mmHg 49%
    11:00 +19°C° 0 mm 4 mps 770 mmHg 45%
    12:00 +21°C° 0 mm 4 mps 770 mmHg 42%
    13:00 +21°C° 0 mm 4 mps 769 mmHg 43%
    14:00 +21°C° 0 mm 4 mps 769 mmHg 44%
    15:00 +22°C° 0 mm 4 mps 768 mmHg 45%
    16:00 +20°C° 0 mm 3 mps 768 mmHg 51%
    17:00 +18°C° 0 mm 3 mps 768 mmHg 58%
    18:00 +16°C° 0 mm 2 mps 768 mmHg 64%
    19:00 +16°C° 0 mm 2 mps 768 mmHg 67%
    20:00 +15°C° 0 mm 2 mps 768 mmHg 70%
    21:00 +14°C° 0 mm 2 mps 768 mmHg 72%
    22:00 +14°C° 0 mm 2 mps 768 mmHg 75%
    23:00 +14°C° 0 mm 2 mps 767 mmHg 79%

    Day after tomorrow, 28 September, Friday

    Time Temperature Precipitation Wind Pressure Humidity
    00:00 +14°C° 0 mm 2 mps 767 mmHg 82%
    01:00 +12°C° 0 mm 3 mps 767 mmHg 83%
    02:00 +12°C° 0 mm 3 mps 767 mmHg 85%
    03:00 +12°C° 0 mm 4 mps 767 mmHg 86%
    04:00 +12°C° 0 mm 4 mps 768 mmHg 89%
    05:00 +12°C° 0 mm 4 mps 768 mmHg 91%
    06:00 +10°C° 0 mm 5 mps 768 mmHg 93%
    07:00 +12°C° 0 mm 5 mps 768 mmHg 88%
    08:00 +13°C° 0 mm 6 mps 769 mmHg 82%
    09:00 +15°C° 0 mm 6 mps 769 mmHg 77%
    10:00 +15°C° 0 mm 6 mps 769 mmHg 73%
    11:00 +16°C° 0 mm 6 mps 769 mmHg 68%
    12:00 +16°C° 0 mm 6 mps 769 mmHg 64%
    13:00 +16°C° 0 mm 6 mps 769 mmHg 61%
    14:00 +16°C° 0 mm 7 mps 769 mmHg 59%
    15:00 +16°C° 0 mm 7 mps 769 mmHg 57%
    16:00 +15°C° 0 mm 7 mps 770 mmHg 59%
    17:00 +13°C° 0 mm 6 mps 770 mmHg 60%
    18:00 +11°C° 0 mm 6 mps 770 mmHg 62%
    19:00 +11°C° 0 mm 6 mps 771 mmHg 64%
    20:00 +10°C° 0 mm 6 mps 771 mmHg 65%
    21:00 +9°C° 0 mm 5 mps 772 mmHg 67%
    22:00 +9°C° 0 mm 5 mps 772 mmHg 69%
    23:00 +8°C° 0 mm 5 mps 772 mmHg 71%

    29 September, Saturday

    Time Temperature Precipitation Wind Pressure Humidity
    00:00 +8°C° 0 mm 4 mps 772 mmHg 73%
    01:00 +7°C° 0 mm 4 mps 772 mmHg 75%
    02:00 +7°C° 0 mm 4 mps 772 mmHg 76%
    03:00 +8°C° 0 mm 3 mps 772 mmHg 78%
    04:00 +7°C° 0 mm 3 mps 772 mmHg 79%
    05:00 +7°C° 0 mm 3 mps 772 mmHg 80%
    06:00 +7°C° 0 mm 3 mps 773 mmHg 81%
    07:00 +9°C° 0 mm 3 mps 773 mmHg 74%
    08:00 +10°C° 0 mm 3 mps 773 mmHg 67%
    09:00 +12°C° 0 mm 3 mps 773 mmHg 60%
    10:00 +13°C° 0 mm 3 mps 773 mmHg 56%
    11:00 +14°C° 0 mm 3 mps 773 mmHg 53%
    12:00 +16°C° 0 mm 3 mps 773 mmHg 49%
    13:00 +16°C° 0 mm 3 mps 772 mmHg 49%
    14:00 +16°C° 0 mm 3 mps 772 mmHg 49%
    15:00 +16°C° 0 mm 3 mps 771 mmHg 49%
    16:00 +14°C° 0 mm 3 mps 771 mmHg 54%
    17:00 +12°C° 0 mm 3 mps 771 mmHg 58%
    18:00 +12°C° 0 mm 2 mps 771 mmHg 63%
    19:00 +10°C° 0 mm 2 mps 771 mmHg 65%
    20:00 +10°C° 0 mm 2 mps 771 mmHg 67%
    21:00 +9°C° 0 mm 2 mps 771 mmHg 70%
    22:00 +9°C° 0 mm 2 mps 771 mmHg 72%
    23:00 +8°C° 0 mm 2 mps 771 mmHg 74%

    30 September, Sunday

    Time Temperature Precipitation Wind Pressure Humidity
    00:00 +8°C° 0 mm 2 mps 770 mmHg 76%
    01:00 +8°C° 0 mm 2 mps 770 mmHg 77%
    02:00 +7°C° 0 mm 2 mps 769 mmHg 78%
    03:00 +8°C° 0 mm 1 mps 769 mmHg 80%
    04:00 +8°C° 0 mm 1 mps 769 mmHg 81%
    05:00 +7°C° 0 mm 1 mps 769 mmHg 81%
    06:00 +7°C° 0 mm 1 mps 768 mmHg 82%
    07:00 +9°C° 0 mm 1 mps 768 mmHg 75%
    08:00 +11°C° 0 mm 1 mps 768 mmHg 68%
    09:00 +13°C° 0 mm 1 mps 768 mmHg 61%
    10:00 +14°C° 0 mm 1 mps 768 mmHg 57%
    11:00 +15°C° 0 mm 1 mps 767 mmHg 53%
    12:00 +16°C° 0 mm 1 mps 767 mmHg 49%
    13:00 +16°C° 0 mm 2 mps 766 mmHg 49%
    14:00 +17°C° 0 mm 2 mps 766 mmHg 49%
    15:00 +17°C° 0 mm 2 mps 765 mmHg 49%
    16:00 +15°C° 0 mm 2 mps 765 mmHg 56%
    17:00 +14°C° 0 mm 2 mps 765 mmHg 63%
    18:00 +12°C° 0 mm 2 mps 765 mmHg 69%
    19:00 +10°C° 0 mm 2 mps 765 mmHg 74%
    20:00 +10°C° 0 mm 2 mps 765 mmHg 78%
    21:00 +10°C° 0 mm 1 mps 765 mmHg 82%
    22:00 +10°C° 0 mm 1 mps 764 mmHg 84%
    23:00 +10°C° 0 mm 1 mps 764 mmHg 85%

    1 October, Monday

    Time Temperature Precipitation Wind Pressure Humidity
    00:00 +9°C° 0 mm 1 mps 764 mmHg 86%
    01:00 +9°C° 0 mm 2 mps 763 mmHg 86%
    02:00 +9°C° 0 mm 2 mps 763 mmHg 86%
    03:00 +9°C° 0 mm 3 mps 763 mmHg 87%
    04:00 +9°C° 0.1 mm 3 mps 762 mmHg 86%
    05:00 +8°C° 0.1 mm 4 mps 762 mmHg 85%
    06:00 +9°C° 0.1 mm 5 mps 762 mmHg 84%
    07:00 +9°C° 0.3 mm 5 mps 762 mmHg 83%
    08:00 +10°C° 0.3 mm 6 mps 761 mmHg 81%
    09:00 +10°C° 0.3 mm 7 mps 761 mmHg 79%
    10:00 +11°C° 0.2 mm 7 mps 761 mmHg 74%
    11:00 +11°C° 0.2 mm 8 mps 761 mmHg 70%
    12:00 +11°C° 0.2 mm 8 mps 761 mmHg 65%
    13:00 +11°C° 0.4 mm 8 mps 760 mmHg 65%
    14:00 +11°C° 0.4 mm 8 mps 760 mmHg 65%
    15:00 +11°C° 0.4 mm 8 mps 760 mmHg 64%
    16:00 +10°C° 0.4 mm 8 mps 760 mmHg 68%
    17:00 +9°C° 0.4 mm 7 mps 761 mmHg 72%
    18:00 +8°C° 0.4 mm 7 mps 761 mmHg 76%
    19:00 +7°C° 0.6 mm 8 mps 762 mmHg 77%
    20:00 +7°C° 0.6 mm 8 mps 762 mmHg 78%
    21:00 +7°C° 0.6 mm 9 mps 763 mmHg 80%
    22:00 +7°C° 0.5 mm 9 mps 764 mmHg 80%
    23:00 +7°C° 0.5 mm 8 mps 764 mmHg 80%
    Show more